Welcome to the New NWS' Forecast!
Most changes are behind the scenes, but click here for differences you might notice.
Latest weather observations around

Wenatchee, Pangborn Memorial Airport (KEAT)

Using English Units (Switch to International System of Units)
Date/ Time (PST) Wind (mph) Vis. (mi) Weather Sky Cond. Temp (°F) Rel. Humidity Wind Chill (°F) Heat Index (°F) Pressure Precip. (in)
Air Dwpt 6 hour Altimeter (inHg) Sea level (inHg) 1 hr 3 hr 6 hr
Max Min
Dec 09 10:55 Calm 10 Cloudy OVC033 30 28     92%     30.38 30.42      
Dec 09 09:55 Calm 9 Cloudy OVC032 30 27     88%     30.41 30.45      
Dec 09 08:55 Calm 10 Cloudy OVC034 30 27     88%     30.41 30.45      
Dec 09 07:55 Calm 7 Cloudy FEW024 OVC033 29 26     89%     30.42 30.46      
Dec 09 07:46 Calm 8 Cloudy FEW024 OVC033 29 26     89%     30.42        
Dec 09 06:55 Calm 9 Cloudy OVC025 29 26     89%     30.43 30.47      
Dec 09 05:55 NW 5 7 Cloudy OVC026 29 26     89% 24   30.45 30.49      
Dec 09 04:55 Calm 7 Cloudy OVC029 29 27     92%     30.45 30.49      
Dec 09 04:11 Calm 9 Cloudy FEW003 OVC029 29 26     89%     30.47        
Dec 09 03:55 Calm 9 Clear   29 26     89%     30.48 30.52      
Dec 09 03:20 Calm 9 Cloudy BKN027 OVC048 29 26     89%     30.49        
Dec 09 02:55 Calm 8 Cloudy BKN036 OVC046 29 26     89%     30.5 30.54 0    
Dec 09 02:27 Calm 3 Light Snow and Fog/Mist SCT029 OVC038 29 26     89%     30.5   0    
Dec 09 02:15 Calm 2.5 Light Snow and Fog/Mist SCT029 OVC040 29 26     89%     30.5   0    
Dec 09 02:02 Calm 3 Light Snow and Fog/Mist BKN027 OVC039 29 26     89%     30.5   0    
Dec 09 01:55 Calm 2.5 Light Snow and Fog/Mist BKN023 OVC039 29 26     89%     30.5 30.54 0    
Dec 09 01:32 Calm 2.5 Light Snow and Fog/Mist OVC029 29 26     89%     30.5   0    
Dec 09 01:25 Calm 3 Light Snow and Fog/Mist OVC031 29 26     89%     30.5   0    
Dec 09 01:13 Calm 2.5 Light Snow and Fog/Mist OVC032 30 26     85%     30.5   0    
Dec 09 00:55 Calm 6 Light Snow and Fog/Mist OVC040 30 26     85%     30.5 30.55 0 0  
Dec 08 23:55 Calm 10 Cloudy OVC040 30 25     81%     30.52 30.56 0    
Dec 08 22:55 ENE 3 8 Cloudy OVC045 30 25     81% 27   30.52 30.56 0    
Dec 08 21:55 Calm 6 Light Snow OVC044 30 24     78%     30.52 30.56 0   0
Dec 08 20:55 NE 3 10 Cloudy FEW033 BKN046 OVC055 30 24     78% 27   30.52 30.57      
Dec 08 19:55 ENE 3 10 Cloudy OVC034 30 24     78% 27   30.53 30.58      
Dec 08 18:55 E 5 10 Cloudy OVC038 30 24     78% 25   30.53 30.58      
Dec 08 17:55 ESE 5 10 Cloudy OVC042 30 24     78% 25   30.53 30.58      
Dec 08 16:55 ENE 3 10 Cloudy OVC041 31 23     72% 28   30.52 30.57      
Dec 08 15:55 E 3 10 Cloudy BKN041 OVC055 31 23     72% 28   30.52 30.56      
Dec 08 14:55 Calm 10 Cloudy OVC037 31 22     69%     30.51 30.55      
Dec 08 13:55 SE 3 10 Cloudy OVC035 30 23     75% 27   30.51 30.55      
Dec 08 12:55 Calm 10 Cloudy OVC034 30 23     75%     30.51 30.55      
Dec 08 11:55 Calm 10 Cloudy OVC033 29 22     75%     30.51 30.56      
Dec 08 10:55 3 10 Cloudy OVC037 29 22     75% 25   30.51 30.55      
Dec 08 09:55 E 5 10 Cloudy OVC036 28 22     78% 23   30.51 30.56      
Dec 08 08:55 E 5 10 Clear   27 22     81% 21   30.5 30.55      
Dec 08 07:55 E 3 10 Cloudy OVC035 27 22     81% 23   30.47 30.52      
Dec 08 06:55 E 5 10 Cloudy OVC035 26 22     84% 20   30.46 30.51      
Dec 08 05:55 E 3 10 Cloudy OVC034 26 22     84% 22   30.45 30.5      
Dec 08 04:55 ENE 5 10 Cloudy OVC033 26 22     84% 20   30.44 30.49      
Dec 08 03:55 E 7 10 Cloudy OVC032 26 21     81% 18   30.44 30.49      
Dec 08 02:55 ESE 6 10 Cloudy OVC033 26 21     81% 19   30.44 30.48      
Dec 08 01:55 E 7 10 Cloudy OVC031 26 21     81% 18   30.42 30.46      
Dec 08 00:55 ESE 7 10 Cloudy OVC032 26 21     81% 18   30.4 30.45      
Dec 07 23:55 E 6 10 Cloudy OVC034 26 21     81% 19   30.39 30.44      
Dec 07 22:55 E 7 10 Cloudy OVC035 26 21     81% 18   30.4 30.45      
Dec 07 21:55 E 6 10 Cloudy OVC037 26 21     81% 19   30.38 30.42      
Dec 07 20:55 E 7 10 Cloudy OVC036 26 21     81% 18   30.38 30.42      
Dec 07 19:55 E 8 10 Cloudy OVC038 26 21     81% 18   30.36 30.41      
Dec 07 18:55 E 6 10 Cloudy OVC039 26 20     77% 19   30.35 30.4      
Dec 07 17:55 E 9 10 Cloudy OVC037 26 20     77% 17   30.35 30.4      
Dec 07 16:55 ESE 8 10 Cloudy OVC036 27 21     78% 19   30.34 30.38      
Dec 07 15:55 E 6 10 Cloudy OVC036 29 21     72% 23   30.33 30.37      
Dec 07 14:55 E 6 10 Cloudy OVC038 29 20     69% 23   30.31 30.35      
Dec 07 13:55 ESE 5 10 Cloudy OVC038 29 20     69% 24   30.31 30.35      
Dec 07 12:55 ESE 8 10 Cloudy FEW031 OVC040 28 20     71% 20   30.31 30.35      
Dec 07 11:55 ESE 8 10 Cloudy OVC040 27 20     75% 19   30.32 30.37      
Dec 07 10:55 ESE 9 10 Cloudy OVC041 27 20     75% 18   30.33 30.38      
Dec 07 09:55 ESE 9 10 Cloudy OVC041 26 20     77% 17   30.34 30.39      
Dec 07 08:55 SE 7 10 Cloudy FEW023 OVC040 28 20     71% 21   30.34 30.38      
Dec 07 07:55 Calm 10 Cloudy OVC040 27 22     81%     30.32 30.37      
Dec 07 06:55 Calm 10 Cloudy OVC040 27 22     81%     30.32 30.36      
Dec 07 05:55 Calm 10 Cloudy BKN031 OVC039 28 21     75%     30.31 30.35      
Dec 07 04:55 Calm 10 Cloudy OVC039 28 21     75%     30.3 30.34      
Dec 07 02:55 Calm 10 Cloudy OVC037 28 22     78%     30.3 30.34      
Dec 07 01:55 Calm 10 Cloudy OVC039 28 21     75%     30.29 30.33      
Dec 06 23:55 Calm 10 Cloudy OVC036 28 21     75%     30.29 30.33      
Dec 06 22:55 Calm 10 Cloudy OVC035 28 21     75%     30.29 30.34      
Dec 06 21:55 Calm 10 Cloudy OVC033 28 21     75%     30.29 30.34      
Dec 06 20:55 Calm 10 Cloudy OVC032 28 22     78%     30.29 30.34      
Dec 06 19:55 E 3 10 Cloudy OVC034 28 22     78% 24   30.3 30.35      
Dec 06 18:55 NNW 3 10 Cloudy OVC032 28 20     71% 24   30.29 30.34      
Dec 06 17:55 Calm 10 Cloudy OVC035 27 19     72%     30.29 30.34      
Dec 06 16:55 N 3 10 Clear CLR 28 20     71% 24   30.29 30.34      
Dec 06 15:05 WSW 6 10 Cloudy OVC029 31 20     63% 25   30.29        
Dec 06 14:55 W 6 10 Cloudy OVC030 31 21     66% 25   30.3 30.34      
Dec 06 13:55 Calm 10 Mostly Cloudy BKN030 32 20     61%     30.3 30.34      
Notice The following observation data may not be complete
Dec 06 12:56 Calm 10 Partly Cloudy FEW050 SCT100   14      %     30.32        
Dec 06 11:55 SE 3 10 Partly Cloudy SCT037 29 19     66% 25   30.31 30.35      
Dec 06 10:55 SE 5 10 Clear CLR 28 20     71% 23   30.32 30.37      
Dec 06 09:55 Calm 10 Clear CLR 27 20     75%     30.33 30.37      
Dec 06 08:55 SSE 3 10 Mostly Cloudy BKN049 25 20     81% 21   30.32 30.37      
Dec 06 07:55 E 3 10 Clear CLR 22 17     81% 17   30.31 30.36      
Dec 06 06:55 N 3 10 Mostly Clear FEW048 24 19     81% 20   30.3 30.35      
Dec 06 05:55 Calm 10 Cloudy OVC049 25 19     78%     30.3 30.34      
Dec 06 04:55 Calm 10 Cloudy OVC050 25 19     78%     30.3 30.34      
Dec 06 03:55 Calm 10 Cloudy OVC050 26 19     74%     30.3 30.34      
Dec 06 02:55 NW 3 10 Cloudy OVC050 26 19     74% 22   30.29 30.34      
Dec 06 01:55 W 5 10 Cloudy OVC050 27 19     72% 21   30.29 30.33      
Dec 06 00:55 WSW 6 10 Cloudy OVC050 27 19     72% 20   30.3 30.34      
Dec 05 23:55 Calm 10 Cloudy OVC050 28 21     75%     30.31 30.35      
Dec 05 22:55 W 7 10 Cloudy OVC050 29 20     69% 22   30.32 30.36      
Dec 05 21:55 W 6 10 Cloudy OVC050 29 20     69% 23   30.32 30.36      
Dec 05 20:55 NW 5 10 Cloudy OVC048 29 20     69% 24   30.32 30.36      
Dec 05 19:55 NNW 3 10 Cloudy OVC047 30 19     63% 27   30.33 30.37      
Dec 05 18:55 WNW 5 10 Cloudy OVC046 30 19     63% 25   30.33 30.37      
Dec 05 17:55 W 6 10 Cloudy OVC045 29 18     63% 23   30.33 30.37      
Dec 05 16:55 W 6 10 Cloudy OVC044 30 18     60% 24   30.32 30.36      
Dec 05 15:55 NNE 3 10 Clear CLR 32 17     54% 29   30.31 30.35      
Dec 05 14:55 WSW 9 10 Partly Cloudy SCT045 33 18     53% 25   30.31 30.35      
Dec 05 13:55 3 10 Mostly Clear FEW040 33 17     51% 30   30.3 30.34      
Dec 05 12:55 W 3 10 Cloudy OVC040 32 17     54% 29   30.32 30.36      
Dec 05 11:55 W 7 10 Cloudy BKN038 OVC045 32 19     58% 26   30.33 30.37      
Dec 05 10:55 W 9 10 Partly Cloudy SCT042 30 22     71% 22   30.34 30.38      
Dec 05 09:55 W 7 10 Partly Cloudy SCT040 29 22     75% 22   30.35 30.39      
Dec 05 08:55 NW 6 10 Clear CLR 29 22     75% 23   30.34 30.38      
Dec 05 07:55 NW 3 10 Mostly Cloudy BKN034 28 23     81% 24   30.33 30.37      
Dec 05 06:55 Calm 10 Cloudy OVC032 29 22     75%     30.31 30.36      
Dec 05 05:55 WNW 3 10 Cloudy OVC032 29 23     78% 25   30.31 30.35      
Dec 05 04:55 W 6 10 Cloudy OVC032 29 23     78% 23   30.3 30.35      
Dec 05 03:55 W 5 10 Cloudy OVC033 29 24     82% 24   30.31 30.35      
Dec 05 02:55 W 5 10 Cloudy OVC033 28 24     85% 23   30.31 30.35      
Dec 05 01:55 NW 5 10 Cloudy OVC034 29 23     78% 24   30.31 30.35      
Dec 05 00:55 NW 5 10 Cloudy OVC036 28 23     81% 23   30.3 30.34      
Dec 04 23:55 Calm 10 Cloudy OVC031 28 24     85%     30.31 30.36      
Dec 04 22:55 Calm 10 Cloudy OVC033 28 23     81%     30.31 30.35      
Dec 04 21:55 Calm 10 Cloudy OVC032 28 22     78%     30.31 30.35      
Dec 04 20:55 Calm 10 Cloudy OVC032 26 22     84%     30.31 30.36      
Dec 04 19:55 ENE 7 10 Cloudy OVC032 26 22     84% 18   30.3 30.35      
Dec 04 18:55 Calm 10 Clear CLR 27 23     85%     30.31 30.36      
Dec 04 17:55 ESE 6 10 Clear CLR 29 23     78% 23   30.31 30.35      
Dec 04 16:55 ENE 5 10 Mostly Cloudy BKN035 29 22     75% 24   30.33 30.38      
Dec 04 15:55 SE 3 10 Clear CLR 31 23     72% 28   30.34 30.39      
Dec 04 14:55 Calm 10 Clear CLR 33 23     66%     30.36 30.4      
Dec 04 13:55 3 10 Clear CLR 34 23     64% 31   30.37 30.4      
Dec 04 12:55 W 3 10 Mostly Cloudy BKN039 33 24     69% 30   30.4 30.44      
Dec 04 11:55 Calm 10 Cloudy OVC040 32 23     69%     30.42 30.46      
Dec 04 10:55 WNW 3 10 Mostly Cloudy BKN042 30 22     71% 27   30.44 30.48      
Dec 04 09:55 Calm 10 Clear CLR 29 23     78%     30.45 30.49      
Dec 04 08:55 WNW 3 10 Clear CLR 27 21     78% 23   30.45 30.49      
Dec 04 07:55 NW 3 10 Clear CLR 25 21     85% 21   30.44 30.48      
Dec 04 06:55 Calm 10 Mostly Clear FEW047 24 21     88%     30.44 30.48      
Dec 04 05:55 Calm 10 Cloudy OVC048 28 22     78%     30.44 30.48      
Dec 04 04:55 Calm 10 Mostly Cloudy BKN050 27 23     85%     30.44 30.47      
Dec 04 03:55 W 3 10 Clear CLR 27 23     85% 23   30.43 30.47      
Dec 04 02:55 Calm 10 Clear CLR 29 23     78%     30.43 30.46      
Dec 04 01:55 Calm 10 Clear CLR 30 24     78%     30.43 30.47      
Dec 04 00:55 WSW 3 10 Mostly Clear FEW060 30 25     81% 27   30.43 30.46      
Dec 03 23:55 Calm 10 Cloudy OVC060 32 26     78%     30.42 30.46      
Dec 03 22:55 NW 5 10 Cloudy OVC060 32 27     81% 27   30.42 30.46      
Dec 03 21:55 Calm 10 Cloudy OVC060 33 26     75%     30.42 30.45      
Dec 03 20:55 Calm 10 Cloudy OVC060 33 26     75%     30.41 30.45      
Dec 03 19:55 Calm 10 Cloudy OVC060 34 26     72%     30.41 30.45      
Dec 03 18:55 Calm 10 Cloudy OVC060 34 26     72%     30.41 30.45      
Dec 03 17:55 Calm 10 Cloudy OVC060 34 28     79%     30.4 30.44      
Dec 03 16:55 Calm 10 Cloudy OVC060 34 26     72%     30.38 30.42      
Dec 03 15:55 Calm 10 Cloudy OVC060 36 25     64%     30.38 30.41      
Dec 03 14:55 Calm 10 Cloudy OVC060 36 25     64%     30.37 30.4      
Dec 03 13:55 Calm 10 Cloudy OVC060 36 26     67%     30.36 30.4      
Dec 03 12:55 WNW 5 10 Cloudy OVC060 35 27     72% 31   30.37 30.4      
Dec 03 11:55 W 6 10 Cloudy OVC055 34 28     79% 29   30.37 30.4      
Dec 03 10:55 SW 3 10 Cloudy OVC050 33 29     85% 30   30.37 30.41      
Dec 03 09:55 W 3 10 Cloudy OVC050 32 29     88% 29   30.37 30.4      
Dec 03 08:55 NW 3 10 Cloudy OVC050 31 28     89% 28   30.36 30.39      
Dec 03 07:55 NNW 3 10 Mostly Cloudy SCT039 BKN050 30 27     88% 27   30.34 30.38      
Dec 03 06:55 Calm 10 Mostly Cloudy BKN035 29 26     89%     30.33 30.36      
Dec 03 05:55 W 7 10 Clear CLR 30 27     88% 23   30.31 30.35      
Dec 03 04:55 Calm 10 Partly Cloudy SCT070 30 27     88%     30.3 30.34      
Dec 03 03:55 NNW 6 10 Partly Cloudy SCT065 32 29     88% 26   30.29 30.32      
Dec 03 02:55 WNW 7 10 Partly Cloudy SCT070 32 29     88% 26   30.28 30.31      
Dec 03 01:55 NW 10 10 Cloudy OVC070 33 29     85% 25   30.27 30.3      
Dec 03 00:55 W 6 10 Cloudy OVC070 32 29     88% 26   30.26 30.29      
Dec 02 23:55 N 5 10 Partly Cloudy SCT070 32 29     88% 27   30.25 30.28      
Dec 02 22:55 W 8 10 Cloudy OVC075 34 30     85% 27   30.24 30.27      
Dec 02 21:55 NNW 5 10 Cloudy OVC070 35 31     85% 31   30.23 30.25      
Dec 02 20:55 WNW 6 10 Cloudy OVC065 35 31     85% 30   30.21 30.24      
Dec 02 19:55 WNW 6 10 Cloudy OVC065 34 31     88% 29   30.2 30.24      
Dec 02 18:55 WNW 8 10 Partly Cloudy SCT060 35 31     85% 29   30.19 30.22      
Dec 02 17:55 WNW 5 10 Clear CLR 36 31     82% 32   30.17 30.2      
Dec 02 16:55 W 6 10 Cloudy FEW060 OVC080 38 32     79% 33   30.16 30.19      
Dec 02 15:55 NW 6 10 Cloudy BKN085 OVC110 40 31     70% 36   30.14 30.17      
Dec 02 14:55 NW 6 10 Cloudy BKN070 BKN085 OVC110 40 31     70% 36   30.13 30.16      
Dec 02 13:55 W 6 10 Cloudy SCT065 OVC110 42 30     62% 38   30.12 30.14      
Dec 02 12:55 NW 7 10 Cloudy FEW070 OVC110 41 31     67% 36   30.11 30.14      
Dec 02 11:55 WNW 5 10 Cloudy SCT060 OVC075 42 33     70% 39   30.1 30.13      
Dec 02 10:55 Calm 10 Cloudy OVC060 41 30     65%     30.1 30.13      
Dec 02 09:55 Calm 10 Cloudy OVC060 40 32     73%     30.1 30.13      
Dec 02 08:55 S 6 10 Cloudy OVC055 37 34     89% 32   30.08 30.1      
Dec 02 07:55 NW 3 10 Cloudy OVC049 36 34     92% 33   30.05 30.08      
Dec 02 06:55 WNW 5 10 Cloudy OVC047 36 34     92% 32   30.03 30.06      
Dec 02 05:55 WNW 7 10 Cloudy FEW044 OVC060 35 33     92% 29   30.01 30.03      
Dec 02 04:55 Calm 6 Fog/Mist FEW003 SCT043 OVC055 35 33     92%     29.99 30.02      
Dec 02 04:48 WNW 3 6 Fog/Mist SCT001 SCT044 OVC055 35 33     92% 32   29.99        
Dec 02 04:32 WNW 3 3 Fog/Mist OVC002 35 33     92% 32   29.99        
Dec 02 04:20 WNW 3 1.75 Fog/Mist OVC002 35 33     92% 32   29.98        
Dec 02 04:10 W 6 4 Fog/Mist BKN002 OVC060 35 33     92% 30   29.98        
Dec 02 03:55 W 5 7 Cloudy FEW002 SCT042 OVC060 35 33     92% 31   29.98 30     0
Dec 02 02:55 WNW 7 10 Cloudy FEW037 BKN048 OVC060 36 34     92% 30   29.96 29.99      
Dec 02 01:55 W 6 10 Cloudy SCT050 BKN065 OVC110 35 33     92% 30   29.95 29.98      
Dec 02 00:55 W 6 10 Cloudy BKN049 OVC060 35 33     92% 30   29.95 29.98   0  
Dec 01 23:55 WNW 5 10 Cloudy OVC037 35 34     96% 31   29.94 29.97      
Dec 01 22:55 W 7 10 Cloudy OVC032 36 33     89% 30   29.94 29.96 0    
Dec 01 22:51 WNW 7 10 Cloudy OVC030 36 34     93% 30   29.94   0    
Dec 01 21:55 W 5 10 Cloudy BKN028 OVC035 35 33     92% 31   29.92 29.95      
Dec 01 21:53 W 5 10 Cloudy BKN028 OVC035 36 34     93% 32   29.92        
Dec 01 20:55 W 6 10 Cloudy SCT032 OVC060 36 34     92% 31   29.91 29.93      
Dec 01 19:55 WNW 6 10 Cloudy SCT009 OVC034 36 35     96% 31   29.9 29.92      
Dec 01 19:32 W 6 10 Cloudy BKN009 OVC050 36 35     96% 31   29.9        
Dec 01 18:55 NW 7 10 Cloudy FEW006 SCT029 OVC047 36 35     96% 30   29.88 29.91      
Dec 01 18:42 WNW 8 10 Cloudy FEW006 BKN029 OVC039 37 34     89% 31   29.88        
Dec 01 18:34 WNW 7 10 Cloudy FEW010 BKN031 OVC041 37 34     89% 32   29.88        
Dec 01 17:55 NNW 3 10 Cloudy OVC011 37 34     89% 35   29.87 29.9      
Dec 01 17:24 NNW 3 10 Cloudy BKN011 OVC032 36 34     92% 33   29.87        
Dec 01 16:55 Calm 10 Cloudy BKN031 OVC047 36 34     92%     29.86 29.89      
Dec 01 15:55 WNW 5 10 Cloudy BKN049 OVC055 37 35     92% 33   29.85 29.88 0   0
Dec 01 15:44 W 5 10 Cloudy SCT025 OVC047 37 35     92% 33   29.85   0    
Dec 01 15:10 WNW 6 5 Light Rain and Fog/Mist FEW013 BKN025 OVC043 37 35     92% 32   29.85   0    
Dec 01 15:02 WNW 5 8 Light Rain FEW011 BKN034 OVC043 37 35     92% 33   29.84   0    
Dec 01 14:55 WNW 5 10 Light Rain FEW009 BKN021 OVC044 37 35     92% 33   29.84 29.86 0    
Dec 01 13:55 WNW 5 6 Light Rain and Fog/Mist SCT009 BKN019 OVC036 37 35     92% 33   29.83 29.85 0    
Dec 01 13:18 Calm 6 Light Rain and Fog/Mist SCT007 BKN018 OVC023 37 35     92%     29.83   0    
Dec 01 13:11 Calm 9 Light Rain BKN007 BKN016 OVC028 37 35     92%     29.83   0    
Dec 01 12:55 NW 3 10 Light Rain FEW006 BKN022 OVC033 37 35     92% 35   29.83 29.85 0 0  
Dec 01 12:36 WNW 5 7 Light Rain FEW008 BKN020 OVC033 37 35     92% 33   29.82   0    
Dec 01 12:26 NW 5 7 Light Rain FEW003 BKN008 OVC020 37 35     92% 33   29.82   0    
Dec 01 11:55 W 6 10 Cloudy FEW003 OVC018 37 35     92% 32   29.82 29.84 0    
Dec 01 10:55 NW 3 9 Light Rain BKN022 OVC027 36 34     92% 33   29.82 29.85 0    
Dec 01 09:55 Calm 10 Cloudy FEW006 SCT009 OVC020 36 34     92%     29.82 29.85 0   0
Dec 01 09:45 Calm 10 Cloudy SCT007 OVC020 35 34     96%     29.82   0    
Dec 01 09:37 W 3 10 Light Rain BKN009 OVC021 35 34     96% 32   29.82   0    
Dec 01 09:19 W 3 10 Light Rain SCT009 OVC021 35 34     96% 32   29.82   0    
Dec 01 08:55 SW 3 8 Light Rain BKN009 OVC020 35 33     92% 32   29.81 29.83 0    
Dec 01 08:51 Calm 9 Light Rain BKN009 OVC020 36 34     93%     29.81   0    
Dec 01 08:27 NW 3 7 Light Rain SCT007 OVC021 35 33     92% 32   29.8   0    
Dec 01 07:55 NNW 3 7 Light Rain OVC007 35 33     92% 32   29.8 29.82 0    
Dec 01 07:05 W 6 10 Light Rain BKN005 OVC012 35 34     96% 30   29.79   0    
Dec 01 06:55 W 5 10 Light Rain SCT007 OVC012 36 34     92% 32   29.78 29.81 0 0  
Dec 01 06:24 WNW 6 8 Light Rain BKN012 OVC019 36 34     92% 31   29.78   0    
Dec 01 05:55 WNW 6 6 Light Rain and Fog/Mist FEW003 BKN008 OVC018 36 34     92% 31   29.77 29.8 0    
Dec 01 05:34 W 5 6 Light Rain and Fog/Mist OVC003 37 35     92% 33   29.77   0    
Dec 01 04:55 W 3 5 Light Rain and Fog/Mist BKN005 OVC012 37 35     92% 35   29.76 29.79 0    
Dec 01 04:48 W 3 5 Light Rain and Fog/Mist SCT007 OVC012 37 35     92% 35   29.77   0    
Dec 01 04:35 W 6 5 Light Rain and Fog/Mist BKN010 OVC019 37 35     92% 32   29.76   0    
Dec 01 03:55 W 5 9 Cloudy FEW008 OVC021 37 35     92% 33   29.76 29.78 0   0
Dec 01 03:51 W 6 10 Light Rain SCT008 OVC021 37 36     93% 33   29.76   0    
Dec 01 03:32 W 6 6 Light Rain and Fog/Mist BKN008 OVC019 37 35     92% 32   29.76   0    
Dec 01 03:23 WNW 3 5 Light Rain and Fog/Mist BKN010 OVC019 37 35     92% 35   29.76   0    
Dec 01 02:55 W 3 6 Light Rain and Fog/Mist BKN021 BKN026 OVC043 37 35     92% 35   29.76 29.78 0    
Dec 01 02:27 Calm 6 Fog/Mist FEW018 SCT023 OVC032 37 35     92%     29.76        
Dec 01 01:55 Calm 7 Cloudy SCT020 OVC029 38 35     89%     29.76 29.78 0    
Dec 01 00:55 Calm 6 Light Rain and Fog/Mist OVC022 38 35     89%     29.76 29.78 0 0  
Nov 30 23:55 E 3 6 Light Rain and Fog/Mist OVC023 37 35     92% 35   29.77 29.78 0    
Nov 30 22:55 Calm 9 Cloudy OVC019 38 35     89%     29.76 29.78      
Nov 30 21:55 NNE 3 9 Cloudy OVC021 38 35     89% 36   29.75 29.77      
Nov 30 20:55 Calm 10 Cloudy OVC016 38 35     89%     29.75 29.77      
Nov 30 19:55 ENE 8 9 Cloudy OVC016 36 34     92% 30   29.75 29.77      
Nov 30 19:43 ENE 7 9 Mostly Cloudy BKN016 36 34     92% 30   29.75        
Nov 30 18:55 E 6 10 Clear CLR 36 34     92% 31   29.74 29.76      
Nov 30 17:55 ENE 7 10 Clear CLR 37 35     92% 32   29.73 29.75      
Nov 30 16:55 ESE 8 10 Clear CLR 39 36     89% 33   29.72 29.74      
Nov 30 15:55 ESE 8 10 Clear CLR 40 37     89% 34   29.72 29.75      
Nov 30 14:55 E 8 10 Mostly Clear FEW120 43 38     82% 38   29.72 29.74      
Nov 30 13:55 ESE 8 10 Mostly Clear FEW110 42 38     85% 37   29.72 29.74      
Nov 30 12:55 SE 3 10 Clear CLR 43 37     79% 41   29.72 29.74      
Nov 30 11:55 SSE 7 10 Clear CLR 43 38     82% 39   29.72 29.74      
Nov 30 10:55 SW 3 10 Clear CLR 42 38     85% 40   29.73 29.75      
Nov 30 09:55 Calm 10 Clear CLR 41 37     86%     29.73 29.75     0
Nov 30 08:55 Calm 8 Clear CLR 36 34     92%     29.72 29.74      
Nov 30 07:55 Calm 9 Clear CLR 35 33     92%     29.7 29.73      
Nov 30 06:55 Calm 10 Mostly Clear FEW120 37 34     89%     29.69 29.71   0  
Nov 30 05:55 N 5 10 Cloudy FEW037 SCT046 OVC100 37 35     92% 33   29.68 29.7 0    
Nov 30 04:55 Calm 10 Light Rain OVC047 38 35     89%     29.68 29.69 0    
Nov 30 03:55 W 5 10 Cloudy OVC060 37 35     92% 33   29.67 29.69      
Nov 30 02:55 W 6 10 Mostly Cloudy BKN070 BKN110 37 35     92% 32   29.67 29.68      
Nov 30 01:55 W 6 10 Cloudy OVC060 38 36     92% 33   29.66 29.68      
Nov 30 00:55 WNW 5 10 Cloudy OVC065 38 36     92% 34   29.66 29.68      
Nov 29 23:55 W 3 10 Cloudy OVC065 38 35     89% 36   29.66 29.68      
Nov 29 22:55 Calm 10 Cloudy OVC060 39 35     86%     29.67 29.69      
Nov 29 21:55 NW 3 10 Clear   38 35     89% 36   29.67 29.69      
Nov 29 20:55 Calm 10 Cloudy SCT048 OVC065 39 36     89%     29.66 29.68      
Nov 29 19:55 Calm 10 Cloudy OVC060 39 36     89%     29.66 29.68      
Nov 29 18:55 Calm 10 Cloudy OVC060 40 36     86%     29.66 29.68      
Nov 29 17:55 Calm 10 Cloudy OVC055 41 37     86%     29.66 29.68      
Nov 29 16:55 Calm 10 Cloudy OVC050 41 37     86%     29.66 29.68      
Nov 29 15:55 WNW 6 10 Cloudy OVC050 41 37     86% 37   29.66 29.68      
Nov 29 14:55 W 5 10 Cloudy FEW030 OVC050 42 36     79% 39   29.66 29.68      
Nov 29 13:55 WNW 3 10 Cloudy BKN030 OVC047 42 37     82% 40   29.67 29.68      
Nov 29 12:55 W 3 10 Cloudy OVC047 41 37     86% 39   29.67 29.69      
Nov 29 11:55 WNW 3 10 Cloudy OVC043 40 37     89% 38   29.68 29.7      
Nov 29 11:30 W 6 10 Cloudy BKN031 OVC045 40 37     89% 36   29.69        
Nov 29 11:03 WSW 9 10 Cloudy BKN029 BKN041 OVC049 39 37     93% 33   29.7        
Nov 29 10:55 W 8 10 Cloudy SCT029 SCT041 OVC049 39 37     93% 33   29.7 29.72      
Nov 29 10:03 WSW 8 10 Cloudy FEW005 BKN036 OVC050 38 36     92% 32   29.71        
Nov 29 09:55 WSW 7 10 Cloudy OVC036 38 36     92% 33   29.71 29.73      
Nov 29 08:55 W 6 10 Cloudy OVC032 37 35     92% 32   29.71 29.74      
Nov 29 07:55 Calm 10 Cloudy OVC032 37 35     92%     29.71 29.73      
Nov 29 06:55 Calm 10 Cloudy OVC031 37 35     92%     29.71 29.72      
Nov 29 05:55 Calm 10 Cloudy FEW002 OVC033 37 35     92%     29.7 29.72      
Nov 29 05:45 N 3 9 Cloudy FEW002 OVC033 37 35     92% 35   29.7        
Nov 29 04:55 W 3 10 Cloudy SCT019 OVC034 37 35     92% 35   29.7 29.72      
Nov 29 03:55 N 5 10 Cloudy OVC031 37 35     92% 33   29.7 29.72     0
Nov 29 02:59 NW 6 3 Fog/Mist OVC030 37 35     92% 32   29.71        
Nov 29 02:55 WNW 7 1.5 Fog/Mist FEW001 OVC030 37 35     92% 32   29.71 29.73      
Nov 29 02:39 W 6 1.75 Fog/Mist SCT001 OVC028 37 36     96% 32   29.71        
Nov 29 02:33 W 6 2 Fog/Mist BKN001 BKN023 OVC030 37 36     96% 32   29.71        
Nov 29 02:16 W 5 1 Fog/Mist SCT001 BKN024 OVC029 37 36     96% 33   29.71        
Nov 29 02:03 W 7 2.5 Fog/Mist FEW001 OVC024 37 36     96% 32   29.72        
Nov 29 01:55 W 5 2.5 Fog/Mist OVC024 37 36     96% 33   29.71 29.73      
Nov 29 00:55 W 3 7 Cloudy FEW009 OVC022 37 36     96% 35   29.72 29.74   0  
Nov 29 00:40 W 3 4 Fog/Mist SCT002 SCT008 OVC021 37 36     96% 35   29.71        
Nov 29 00:36 Calm 2 Fog/Mist SCT002 BKN008 OVC021 37 36     96%     29.72        
Nov 29 00:16 NW 3 1.75 Fog/Mist BKN002 OVC007 37 36     96% 35   29.72        
Nov 29 00:02 WNW 6 3 Fog/Mist OVC008 37 36     96% 32   29.72        
Nov 28 23:55 WNW 5 1.5 Fog/Mist OVC006 37 36     96% 33   29.72 29.75      
Nov 28 23:50 W 3 1.75 Fog/Mist SCT002 OVC008 37 36     93% 35   29.72        
Nov 28 23:40 W 3 3 Fog/Mist SCT002 BKN006 OVC022 37 36     96% 35   29.72        
Nov 28 23:34 Calm 1.75 Fog/Mist BKN002 OVC022 37 36     96%     29.72        
Nov 28 23:23 Calm 2.5 Fog/Mist BKN002 OVC021 37 36     96%     29.72        
Nov 28 23:16 Calm 4 Fog/Mist SCT002 OVC021 37 36     96%     29.72        
Nov 28 23:02 Calm 4 Fog/Mist BKN004 OVC022 37 36     96%     29.73        
Nov 28 22:55 Calm 4 Fog/Mist OVC006 37 36     96%     29.73 29.75 0    
Nov 28 22:35 Calm 5 Light Rain and Fog/Mist BKN006 OVC023 37 36     96%     29.73   0    
Nov 28 22:18 Calm 4 Light Rain and Fog/Mist FEW007 OVC023 37 36     96%     29.73   0    
Nov 28 21:55 Calm 6 Light Rain and Fog/Mist FEW013 OVC023 38 36     92%     29.73 29.76 0   0
Nov 28 21:32 Calm 4 Fog/Mist FEW004 SCT010 OVC023 38 36     92%     29.74   0    
Nov 28 21:18 Calm 5 Fog/Mist FEW004 BKN009 OVC025 37 36     96%     29.74   0    
Nov 28 21:09 WNW 3 6 Light Rain and Fog/Mist FEW004 SCT009 OVC026 37 36     96% 35   29.74   0    
Nov 28 20:55 Calm 7 Light Rain OVC026 37 35     92%     29.74 29.76 0    
Nov 28 19:55 Calm 10 Light Rain OVC023 38 35     89%     29.73 29.76 0    
Nov 28 18:55 Calm 10 Light Rain FEW014 OVC020 38 35     89%     29.73 29.75 0 0  
Nov 28 17:55 Calm 10 Light Rain SCT009 OVC018 38 35     89%     29.73 29.76 0    
Nov 28 17:41 Calm 10 Light Rain BKN009 OVC018 38 35     89%     29.73   0    
Nov 28 17:18 Calm 10 Light Rain SCT009 OVC016 38 35     89%     29.73   0    
Nov 28 16:55 Calm 10 Cloudy OVC018 38 35     89%     29.73 29.76 0    
Nov 28 16:13 Calm 10 Light Rain FEW007 BKN015 OVC021 38 35     89%     29.74   0    
Nov 28 15:55 Calm 10 Light Rain OVC013 38 35     89%     29.74 29.76 0   0
Nov 28 15:35 Calm 10 Cloudy SCT004 OVC012 38 35     89%     29.74        
Nov 28 15:27 Calm 10 Cloudy BKN005 OVC010 38 35     89%     29.74        
Nov 28 15:13 Calm 10 Cloudy SCT005 OVC011 38 35     89%     29.74        
Nov 28 14:55 SSE 3 10 Cloudy OVC012 37 35     92% 35   29.74 29.76      
Nov 28 14:35 Calm 10 Cloudy SCT004 OVC012 37 35     92%     29.74        
Nov 28 13:55 Calm 10 Cloudy OVC004 38 35     89%     29.74 29.77      
Nov 28 13:17 Calm 10 Cloudy OVC004 38 35     89%     29.75        
Nov 28 12:55 Calm 10 Cloudy OVC005 38 35     89%     29.75 29.77      
Nov 28 12:22 Calm 10 Cloudy OVC005 37 35     92%     29.75        
Nov 28 11:55 Calm 10 Cloudy OVC004 37 35     92%     29.76 29.78      
Nov 28 11:02 Calm 9 Cloudy OVC002 36 35     96%     29.77        
Nov 28 10:55 Calm 2.5 Fog/Mist OVC002 36 36     100%     29.77 29.8      
Nov 28 10:33 WSW 3 1.25 Fog/Mist OVC002 36 35     96% 33   29.78        
Nov 28 10:07 Calm 0.75 Fog/Mist OVC002 36 35     96%     29.78        
Nov 28 09:55 E 3 1 Fog/Mist OVC002 36 35     96% 33   29.78 29.8     0
Nov 28 09:44 Calm 1.5 Fog/Mist OVC002 36 35     96%     29.78        
Nov 28 09:28 SW 3 2.5 Fog/Mist OVC002 35 35     100% 32   29.79        
Nov 28 09:13 W 6 1.5 Fog/Mist OVC002 35 35     100% 30   29.78        
Nov 28 09:02 W 7 2.5 Fog/Mist OVC002 35 34     96% 29   29.77        
Nov 28 08:58 WNW 8 3 Fog/Mist BKN001 OVC008 35 34     96% 29   29.78        
Nov 28 08:55 WNW 7 1.75 Fog/Mist BKN001 OVC008 35 34     96% 29   29.78 29.8      
Nov 28 08:44 W 9 1.75 Fog/Mist BKN003 OVC009 34 33     96% 27   29.78        
Nov 28 08:13 E 3 3 Fog/Mist OVC002 33 32     96% 30   29.78        
Nov 28 08:04 NE 5 1.5 Fog/Mist BKN002 32 31     96% 27   29.78        
Nov 28 07:55 3 1.5 Fog/Mist SCT001 BKN014 BKN110 33 31     92% 30   29.78 29.81      
Nov 28 07:53 3 1.5 Fog/Mist SCT001 BKN014 BKN110 32 30     93% 29   29.78        
Nov 28 07:51 ENE 6 2 Fog/Mist FEW001 SCT014 BKN110 32 30     93% 26   29.78        
Nov 28 07:17 Calm 5 Fog/Mist SCT015 BKN120 33 31     92%     29.78        
Nov 28 07:05 Calm 8 Mostly Cloudy FEW001 BKN015 34 32     92%     29.78        
Nov 28 06:55 Calm 8 Cloudy OVC015 33 32     96%     29.78 29.81   0  
Nov 28 06:09 Calm 5 Fog/Mist FEW003 FEW006 OVC012 33 31     92%     29.78        
Nov 28 06:02 S 5 2.5 Fog/Mist SCT003 OVC011 33 31     92% 29   29.78        
Nov 28 05:58 S 5 1 Fog/Mist BKN003 OVC011 33 31     92% 29   29.78        
Nov 28 05:55 S 5 0.75 Fog/Mist BKN005 BKN011 OVC090 32 30     92% 27   29.78 29.81 0    
Nov 28 05:49 SSE 5 0.5 Fog SCT005 BKN011 OVC090 32 30     93% 27   29.78   0    
Nov 28 05:40 E 5 0.5 Fog BKN001 OVC090 31 29     92% 26   29.77   0    
Nov 28 05:30 3 1 Fog/Mist BKN001 OVC090 31 30     96% 28   29.78   0    
Nov 28 04:55 Calm 0.25 Fog VV001 32 30     92%     29.78 29.8      
Nov 28 04:12 Calm 0.25 Fog VV001 32 30     92%     29.77        
Nov 28 04:02 Calm 0.75 Fog/Mist VV001 32 31     96%     29.78        
Nov 28 03:59 Calm 1.75 Fog/Mist SCT002 33 31     92%     29.78        
Nov 28 03:55 E 3 8 Mostly Clear FEW002 33 31     92% 30   29.78 29.8      
Nov 28 02:55 E 3 8 Clear CLR 34 31     88% 31   29.77 29.8      
Nov 28 02:12 Calm 4 Fog/Mist SCT001 34 32     92%     29.77        
Nov 28 01:55 Calm 10 Clear CLR 33 31     92%     29.77 29.79      
Nov 28 00:55 ENE 3 10 Partly Cloudy SCT055 34 32     92% 31   29.76 29.78      
Nov 27 23:55 Calm 10 Mostly Cloudy SCT065 BKN085 35 33     92%     29.78 29.8      
Nov 27 22:55 NW 6 10 Clear CLR 37 34     89% 32   29.76 29.79      
Nov 27 21:55 NW 6 10 Clear CLR 36 33     89% 31   29.77 29.79      
Nov 27 20:55 NNE 3 10 Clear CLR 36 33     89% 33   29.75 29.78      
Nov 27 19:55 N 3 10 Clear CLR 34 32     92% 31   29.74 29.77      
Nov 27 18:55 NE 5 10 Clear CLR 37 34     89% 33   29.73 29.76      
Nov 27 17:55 NW 3 10 Clear CLR 38 35     89% 36   29.73 29.76      
Nov 27 16:55 Calm 10 Clear CLR 39 35     86%     29.73 29.75      
Nov 27 15:55 SW 5 10 Clear CLR 40 36     86% 37   29.72 29.74      
Nov 27 14:55 SW 6 10 Mostly Clear FEW016 43 37     79% 39   29.71 29.73      
Nov 27 14:28 S 5 10 Clear   43 37     79% 40   29.71        
Nov 27 13:55 SW 5 10 Clear   43 37     79% 40   29.72 29.74      
Nov 27 13:47 3 10 Clear   43 37     79% 41   29.72        
Nov 27 13:27 SW 5 10 Partly Cloudy SCT015 42 37     82% 39   29.72        
Nov 27 13:14 SW 5 10 Mostly Cloudy BKN015 42 37     82% 39   29.72        
Nov 27 12:55 WSW 6 10 Mostly Clear FEW016 42 36     79% 38   29.72 29.74      
Nov 27 12:03 Calm 10 Clear   40 35     83%     29.72        
Nov 27 11:55 WNW 5 10 Clear   41 35     79% 38   29.73 29.75      
Nov 27 10:55 NW 5 10 Cloudy FEW017 OVC065 38 35     89% 34   29.74 29.77      
Nov 27 10:50 W 3 10 Cloudy SCT017 OVC065 37 36     93% 35   29.75        
Nov 27 10:16 WNW 8 10 Cloudy OVC016 37 34     89% 31   29.76        
Nov 27 09:55 NW 6 10 Cloudy OVC014 37 34     89% 32   29.75 29.78      
Nov 27 09:44 NW 6 8 Cloudy OVC014 37 34     89% 32   29.75        
Nov 27 09:16 NW 3 6 Fog/Mist FEW001 OVC016 36 34     92% 33   29.75        
Nov 27 09:07 WNW 3 2 Fog/Mist FEW001 OVC016 36 34     92% 33   29.75        
Nov 27 09:00 Calm 1.75 Fog/Mist SCT001 OVC014 36 34     92%     29.75        
Nov 27 08:53 SSW 3 5 Fog/Mist FEW001 OVC014 36 34     92% 33   29.75 29.77      
Nov 27 08:52 SSW 3 6 Fog/Mist FEW001 OVC014 36 34     93% 33   29.75        
Nov 27 07:55 Calm 9 Cloudy OVC016 36 33     89%     29.75 29.77      
Nov 27 07:35 NNW 3 7 Cloudy OVC016 35 33     92% 32   29.76        
Nov 27 07:07 Calm 5 Fog/Mist OVC014 35 33     92%     29.75        
Nov 27 06:55 Calm 5 Fog/Mist FEW007 OVC015 35 33     92%     29.74 29.77      
Nov 27 06:31 Calm 4 Fog/Mist FEW007 OVC015 35 33     92%     29.75        
Nov 27 05:55 Calm 5 Fog/Mist OVC015 35 33     92%     29.76 29.79      
Nov 27 05:38 Calm 4 Fog/Mist FEW002 OVC016 35 33     92%     29.75        
Nov 27 05:25 Calm 2.5 Fog/Mist SCT002 SCT006 OVC017 35 33     92%     29.78        
Nov 27 05:19 Calm 5 Fog/Mist SCT002 BKN006 OVC017 35 33     92%     29.77        
Nov 27 05:10 E 3 4 Fog/Mist FEW002 SCT006 OVC017 35 33     92% 32   29.75        
Nov 27 04:55 Calm 7 Cloudy OVC017 35 33     92%     29.77 29.8      
Nov 27 03:55 ENE 5 6 Fog/Mist OVC019 35 33     92% 31   29.78 29.8     0
Nov 27 03:25 Calm 6 Fog/Mist BKN019 BKN050 OVC060 35 33     92%     29.79        
Nov 27 03:12 Calm 6 Fog/Mist FEW009 SCT019 OVC050 35 33     92%     29.79        
Nov 27 03:02 NNE 3 4 Fog/Mist FEW002 BKN018 OVC048 35 33     92% 32   29.79        
Nov 27 02:55 NNE 3 2.5 Fog/Mist FEW002 BKN018 OVC050 35 33     92% 32   29.8 29.82 0    
Nov 27 02:44 Calm 1.25 Fog/Mist FEW006 BKN018 OVC050 35 33     92%     29.8   0    
Nov 27 02:30 Calm 0.5 Light Rain and Fog SCT009 OVC019 35 33     92%     29.8   0    
Nov 27 02:20 Calm 1.75 Light Rain and Fog/Mist FEW005 BKN017 OVC060 35 33     92%     29.8   0    
Nov 27 02:04 Calm 4 Light Rain and Fog/Mist FEW005 BKN018 OVC065 35 33     92%     29.81   0    
Nov 27 01:55 SSW 3 5 Light Rain and Fog/Mist SCT019 SCT048 OVC060 35 33     92% 32   29.82 29.85 0    
Nov 27 01:43 Calm 4 Light Rain and Fog/Mist SCT018 SCT045 OVC060 35 33     92%     29.82   0    
Nov 27 00:55 Calm 4 Light Rain and Fog/Mist OVC015 35 33     92%     29.84 29.86 0 0  
Nov 27 00:45 Calm 4 Light Rain and Fog/Mist OVC015 35 33     92%     29.85   0    
Nov 26 23:55 Calm 8 Cloudy OVC014 36 33     89%     29.86 29.89 0    
Nov 26 22:55 E 5 9 Cloudy OVC012 35 33     92% 31   29.89 29.91      
Nov 26 21:55 Calm 10 Cloudy OVC010 36 33     89%     29.92 29.94     0
Nov 26 21:32 Calm 10 Cloudy OVC010 36 33     89%     29.93        
Nov 26 20:55 Calm 10 Cloudy OVC009 36 33     89%     29.94 29.97      
Nov 26 20:02 Calm 10 Cloudy BKN007 OVC011 36 33     89%     29.96        
Nov 26 19:55 Calm 10 Cloudy OVC010 36 33     89%     29.97 29.99      
Nov 26 19:08 NE 3 10 Cloudy FEW008 OVC013 36 33     89% 33   29.97        
Nov 26 18:55 SE 5 10 Cloudy OVC015 35 33     92% 31   29.98 30.01   0  
Nov 26 17:55 E 5 10 Cloudy OVC016 35 33     92% 31   30.01 30.04      
Nov 26 16:55 SE 6 10 Cloudy OVC015 36 33     89% 31   30.03 30.06 0    
Nov 26 15:55 ESE 7 10 Light Rain OVC017 36 33     89% 30   30.05 30.08 0   0
Nov 26 15:36 ENE 5 10 Cloudy SCT004 OVC019 36 34     92% 32   30.06        
Nov 26 15:04 Calm 10 Cloudy BKN004 OVC024 36 34     92%     30.08        
Nov 26 14:55 Calm 10 Cloudy SCT004 OVC024 36 34     92%     30.08 30.11 0    
Nov 26 13:55 E 5 10 Light Rain OVC023 36 33     89% 32   30.09 30.11 0    
Nov 26 12:55 Calm 7 Light Rain OVC029 36 33     89%     30.11 30.14 0 0  
Nov 26 11:55 Calm 10 Light Rain OVC025 36 32     85%     30.12 30.16 0    
Nov 26 10:55 Calm 10 Cloudy OVC026 36 32     85%     30.15 30.18      
Nov 26 09:55 Calm 10 Cloudy OVC027 35 32     88%     30.17 30.2      
Nov 26 08:55 Calm 10 Cloudy OVC026 35 32     88%     30.17 30.2      
Nov 26 07:55 Calm 9 Cloudy OVC028 34 31     88%     30.19 30.22      
Nov 26 07:38 Calm 7 Cloudy OVC029 33 31     92%     30.19        
Nov 26 07:19 ENE 3 9 Cloudy BKN030 OVC100 34 31     88% 31   30.19        
Nov 26 06:55 Calm 9 Cloudy OVC029 34 31     88%     30.2 30.23      
Nov 26 05:55 Calm 9 Mostly Cloudy BKN026 33 31     92%     30.2 30.23      
Nov 26 05:45 SE 3 9 Mostly Cloudy BKN028 34 31     88% 31   30.2        
Nov 26 05:27 Calm 9 Partly Cloudy SCT028 SCT070 34 31     88%     30.21        
Nov 26 04:55 Calm 8 Cloudy OVC027 33 31     92%     30.22 30.24      
Nov 26 03:55 Calm 8 Cloudy OVC026 33 31     92%     30.24 30.27      
Nov 26 03:05 Calm 10 Mostly Cloudy BKN026 33 30     88%     30.23        
Nov 26 02:55 Calm 10 Partly Cloudy SCT026 SCT090 32 30     92%     30.23 30.26      
Nov 26 01:55 Calm 10 Mostly Clear FEW120 34 30     85%     30.24 30.27      
Nov 26 00:55 Calm 10 Mostly Cloudy BKN100 35 30     82%     30.27 30.29      
Nov 25 23:55 Calm 10 Mostly Clear FEW025 34 30     85%     30.27 30.3      
Nov 25 23:50 Calm 10 Partly Cloudy SCT025 36 30     81%     30.27        
Nov 25 22:55 NW 3 10 Cloudy OVC026 35 31     85% 32   30.28 30.31      
Nov 25 21:55 Calm 10 Cloudy OVC026 35 31     85%     30.29 30.32      
Nov 25 20:55 ENE 3 10 Mostly Cloudy BKN026 34 31     88% 31   30.28 30.32      
Nov 25 19:55 Calm 10 Cloudy OVC028 36 32     85%     30.29 30.32      
Nov 25 19:36 Calm 10 Cloudy OVC029 38 31     76%     30.29        
Nov 25 18:55 Calm 10 Partly Cloudy SCT030 38 31     76%     30.3 30.33      
Nov 25 17:55 Calm 10 Cloudy OVC028 38 32     79%     30.29 30.32      
Nov 25 16:55 W 5 10 Cloudy OVC029 39 33     79% 36   30.28 30.31      
Nov 25 16:37 W 3 10 Clear   39 33     79% 37   30.28        
Nov 25 15:55 Calm 10 Clear   40 32     73%     30.27 30.3      
Nov 25 15:09 WSW 3 10 Partly Cloudy SCT029 40 33     76% 38   30.27        
Nov 25 14:55 Calm 10 Mostly Cloudy BKN028 40 32     73%     30.27 30.29      
Nov 25 13:55 SSW 6 10 Partly Cloudy SCT023 40 33     76% 36   30.27 30.3      
Nov 25 12:55 Calm 10 Mostly Cloudy BKN023 41 34     76%     30.28 30.31      
Nov 25 11:55 Calm 10 Clear CLR 38 32     79%     30.29 30.32      
Nov 25 10:41 Calm 10 Mostly Cloudy BKN007 35 32     88%     30.3        
Nov 25 10:04 WSW 3 10 Mostly Clear FEW007 34 31     88% 31   30.3        
Nov 25 09:55 Calm 10 Clear CLR 34 31     88%     30.29 30.33      
Notice The following observation data may not be complete
May 13 19:55 NNW 3 10 Clear CLR   41      %     29.89 29.87      
May 13 16:55 S 8 10 Clear CLR 85        %     29.89 29.87      
May 13 15:55 W 7 10 Clear CLR 86        %     29.9 29.87      
May 13 08:55 WNW 14 10 Clear CLR 63 42     46%     29.97 29.95      
May 12 19:55 Calm 10 Clear CLR 79 35     20%   78 29.88 29.86      
May 12 13:55 WNW 14 10 Clear CLR 81 34     18%   80 29.96 29.93      
May 11 21:55 E 8 10 Cloudy OVC100 60 51     72%     30.1 30.09      
May 11 10:55   10 Cloudy BKN075 OVC095 63 40     43%     30.08 30.07     0
Jun 12 00:55 W 13 10 Clear CLR 60 43     53%     29.85 29.84      
Jun 11 21:55 WNW 14 10 Clear CLR 65 42     43%     29.86 29.85      
Jun 11 19:55 WNW 7 10 Clear   72 37     28%   70 29.85 29.83      
Jun 11 08:55   10 Clear CLR 60 39     46%     29.96 29.95      
Jun 10 01:55 NW 11 10 Clear CLR 52 36     54%     29.74 29.74      
Jun 10 00:55 NW 14 10 Clear CLR 53 35     50%     29.74 29.73      
Jun 09 22:55 WNW 14 10 Clear CLR 57 35     44%     29.73 29.72     0
Jun 09 20:55 WNW 11 10 Clear CLR 61 35     38%     29.69 29.68      
Jun 09 10:55 6 10 Clear CLR 60 35     39%     29.8 29.79      
Jun 08 11:55   8 Rain BKN055 BKN075 OVC090 64 57     78%     29.63 29.61 0    
Jun 08 07:55 S 10 10 Clear CLR 71 51     49%   70 29.57 29.54      
Jun 05 19:55 SE 7 10 Clear   71 35     27%   69 30.06 30.05